Mountain Home, Arkansas, United States (72653)
Lat: 36.34N, Lon: 92.39W
Wx Zone: ARZ005
Local Info
Past Weather Observations for Tuesday, October 21, 2014

NOTE: This archive is for the closest National Weather Service station to Mountain Home. Information may differ from the station used for current weather conditions.

Click here for Long-term Archive

Time Weather Temperature Dewpoint Humidity Pressure Winds Precip Visibility
23:53
Clear
54°F / 12°C 46°F / 8°C 77% 30.15 in
(1021 mb)
E 6.9 mph
(E 11 kph)
- 10SM
22:53
Clear
55°F / 13°C 46°F / 8°C 72% 30.12 in
(1020 mb)
ENE 3.5 mph
(ENE 6 kph)
- 10SM
21:53
Clear
54°F / 12°C 46°F / 8°C 77% 30.12 in
(1020 mb)
Calm - 10SM
20:53
Clear
57°F / 14°C 46°F / 8°C 67% 30.12 in
(1020 mb)
Calm - 10SM
19:53
Clear
61°F / 16°C 46°F / 8°C 59% 30.09 in
(1019 mb)
Calm - 10SM
18:53
Clear
59°F / 15°C 48°F / 9°C 68% 30.09 in
(1019 mb)
Calm - 9SM
17:53
Clear
63°F / 17°C 50°F / 10°C 64% 30.09 in
(1019 mb)
Calm - 10SM
16:53
Clear
66°F / 19°C 52°F / 11°C 60% 30.06 in
(1018 mb)
Calm - 10SM
15:53
Clear
73°F / 23°C 46°F / 8°C 38% 30.06 in
(1018 mb)
Calm - 10SM
14:53
Clear
73°F / 23°C 45°F / 7°C 36% 30.06 in
(1018 mb)
Calm - 10SM
13:53
Clear
73°F / 23°C 46°F / 8°C 38% 30.09 in
(1019 mb)
Calm - 10SM
12:53
Clear
72°F / 22°C 46°F / 8°C 41% 30.09 in
(1019 mb)
Variable 4.6 mph
(Variable 7 kph)
- 10SM
11:53
Clear
72°F / 22°C 46°F / 8°C 41% 30.12 in
(1020 mb)
Calm - 10SM
10:53
Clear
66°F / 19°C 52°F / 11°C 60% 30.15 in
(1021 mb)
Calm - 10SM
09:53
Partly Cloudy
59°F / 15°C 57°F / 14°C 94% 30.15 in
(1021 mb)
Calm - 8SM
09:45
Partly Cloudy
57°F / 14°C 55°F / 13°C 94% 30.15 in
(1021 mb)
Variable 4.6 mph
(Variable 7 kph)
- 7SM
09:34
Mostly Cloudy
Fog And Mist
57°F / 14°C 57°F / 14°C 100% 30.15 in
(1021 mb)
Calm - 5SM
09:20
Overcast
Fog And Mist
55°F / 13°C 55°F / 13°C 100% 30.15 in
(1021 mb)
WNW 3.5 mph
(WNW 6 kph)
- 2SM
09:13
Obscured
Fog And Mist
55°F / 13°C 55°F / 13°C 100% 30.15 in
(1021 mb)
SSW 3.5 mph
(SSW 6 kph)
- 3/4SM
08:53
Obscured
Fog
55°F / 13°C 55°F / 13°C 100% 30.15 in
(1021 mb)
SW 3.5 mph
(SW 6 kph)
- M1/4SM
07:53
Obscured
Fog
54°F / 12°C 54°F / 12°C 100% 30.12 in
(1020 mb)
Calm - 1/4SM
07:32
Obscured
Fog
54°F / 12°C 54°F / 12°C 100% 30.12 in
(1020 mb)
Calm - 1/4SM
07:29
Obscured
Fog And Mist
54°F / 12°C 54°F / 12°C 100% 30.12 in
(1020 mb)
Calm - 3/4SM
07:26
Partly Cloudy
Fog And Mist
54°F / 12°C 54°F / 12°C 100% 30.12 in
(1020 mb)
Calm - 1 1/2SM
07:18
Obscured
Fog And Mist
52°F / 11°C 52°F / 11°C 100% 30.12 in
(1020 mb)
Calm - 1SM
07:09
Obscured
Fog And Mist
50°F / 10°C 50°F / 10°C 100% 30.12 in
(1020 mb)
Calm - 3/4SM
06:53
Obscured
Fog
48°F / 9°C 48°F / 9°C 100% 30.12 in
(1020 mb)
Calm - M1/4SM
06:03
Obscured
Fog
52°F / 11°C 50°F / 10°C 94% 30.09 in
(1019 mb)
Calm - 1/4SM
05:55
Obscured
Fog
50°F / 10°C 48°F / 9°C 94% 30.09 in
(1019 mb)
Calm - 1/2SM
05:53
Obscured
Fog And Mist
50°F / 10°C 48°F / 9°C 94% 30.09 in
(1019 mb)
Calm - 1SM
05:48
Obscured
Fog And Mist
50°F / 10°C 48°F / 9°C 94% 30.09 in
(1019 mb)
Calm - 1SM
05:43
Clear
Fog And Mist
50°F / 10°C 50°F / 10°C 100% 30.09 in
(1019 mb)
Calm - 3/4SM
05:31
Clear
Fog And Mist
52°F / 11°C 52°F / 11°C 100% 30.09 in
(1019 mb)
Calm - 1 3/4SM
05:07
Clear
Fog And Mist
54°F / 12°C 52°F / 11°C 94% 30.09 in
(1019 mb)
Calm - 3SM
04:53
Clear
Fog And Mist
52°F / 11°C 52°F / 11°C 100% 30.09 in
(1019 mb)
Calm - 2SM
03:53
Clear
Fog And Mist
52°F / 11°C 52°F / 11°C 100% 30.09 in
(1019 mb)
N 3.5 mph
(N 6 kph)
- 2 1/2SM
03:39
Partly Cloudy
Fog And Mist
52°F / 11°C 52°F / 11°C 100% 30.06 in
(1018 mb)
Calm - 2SM
03:26
Partly Cloudy
Fog And Mist
52°F / 11°C 52°F / 11°C 100% 30.06 in
(1018 mb)
Calm - 1 1/4SM
03:22
Obscured
Fog And Mist
52°F / 11°C 52°F / 11°C 100% 30.06 in
(1018 mb)
Calm - 3/4SM
03:04
Obscured
Fog And Mist
54°F / 12°C 52°F / 11°C 94% 30.06 in
(1018 mb)
Calm - 1SM
02:53
Obscured
Fog And Mist
54°F / 12°C 54°F / 12°C 100% 30.06 in
(1018 mb)
Calm - 3/4SM
02:51
Obscured
Fog And Mist
54°F / 12°C 54°F / 12°C 100% 30.06 in
(1018 mb)
Calm - 3/4SM
02:43
Clear
Fog And Mist
54°F / 12°C 54°F / 12°C 100% 30.06 in
(1018 mb)
Calm - 1SM
02:32
Clear
Fog
54°F / 12°C 54°F / 12°C 100% 30.06 in
(1018 mb)
Calm - 1/2SM
02:28
Clear
Fog And Mist
54°F / 12°C 54°F / 12°C 100% 30.06 in
(1018 mb)
Calm - 1SM
02:11
Clear
Fog And Mist
55°F / 13°C 55°F / 13°C 100% 30.06 in
(1018 mb)
Calm - 2 1/2SM
01:53
Clear
Fog And Mist
55°F / 13°C 55°F / 13°C 100% 30.09 in
(1019 mb)
WNW 3.5 mph
(WNW 6 kph)
- 4SM
00:53
Clear
Fog And Mist
57°F / 14°C 57°F / 14°C 100% 30.06 in
(1018 mb)
Variable 3.5 mph
(Variable 6 kph)
- 5SM
Time Weather Temperature Dewpoint Humidity Pressure Winds Precip Visibility


Weather for websites

WeatherForYou.com, LLC is not responsible for any damages or problems caused by this service. Current weather conditions are obtained from the closest station including government and personal stations which may have varying degrees of accuracy. Weather forecasts are derived from the NOAA NDFD. Like all things, this site belongs to Jesus Christ... He just trusts me to maintain it. If you have any questions or comments email webmaster@weatherforyou.com

Copyright © 2014, WeatherForYou.com LLC. All rights reserved.